Flag for U.S.A. Weather past 2 weeks in Wheaton, Illinois, U.S.A.

Now
20 °F

Ice fog.


Feels Like: 13 °F
Forecast: 12 / 27 °F
Wind: 5 mph from West

Location: Dupage Airport

Current Time: Mar 1, 2015 at 11:23:49 AM

Latest Report: Mar 1, 2015 at 10:52 AM


Visibility: 6 mi

Pressure: 30.39 "Hg

Humidity: 85%

Dew point: 16 °F

Location of WheatonLocation

Historic Weather in Wheaton — Graph

°F

Wheaton temperature yesterday

Maximum temperature yesterday: 20 °F (at 3:52 PM)
Minimum temperature yesterday: -12 °F (at 4:52 AM)
Average temperature yesterday: 8 °F

Past Weeks' High & Low Weather Summary

 TemperatureHumidityPressure
High31 °F (Feb 21, 1:52 PM)96% (Mar 1, 8:52 AM)30.76 "Hg (Mar 1, 8:52 AM)
Low-12 °F (Feb 28, 4:52 AM)28% (Feb 16, 1:52 PM)29.68 "Hg (Feb 24, 4:52 PM)
Average10 °F64%30.27 "Hg
* Reported Feb 14 9:59 AM — Mar 1 9:57 AM, Wheaton, Weather by CustomWeather, © 2015

Note: Actual official high and low records may vary slightly from our data, if they occured in-between our weather recording intervals... More about our weather records

Advertising

Wheaton weather history for previous 24 hours

 ConditionsComfort  
Time TempWeatherWind HumidityBarometerVisibility
9:57 AM
Sun, Mar 1
19 °FIce fog.3 mph92%30.35 "Hg3 mi
8:52 AM18 °FIce fog.No wind96%30.39 "Hg2 mi
8:02 AM16 °FIce fog.3 mph92%30.37 "Hg3 mi
6:52 AM13 °FIce fog.No wind88%30.39 "Hg3 mi
5:52 AM12 °FIce fog.No wind88%30.40 "Hg2 mi
4:52 AM14 °FIce fog.No wind92%30.41 "Hg3 mi
3:52 AM13 °FIce fog.No wind88%30.41 "Hg4 mi
3:04 AM12 °FIce fog.No wind88%30.38 "Hg2 mi
2:52 AM12 °FIce fog.No wind88%30.42 "Hg4 mi
1:52 AM14 °FIce fog.No wind87%30.45 "Hg6 mi
12:52 AM17 °FOvercast.6 mph83%30.45 "Hg7 mi
11:52 PM
Sat, Feb 28
18 °FOvercast.6 mph80%30.47 "Hg7 mi
10:52 PM17 °FIce fog.No wind83%30.50 "Hg6 mi
9:52 PM17 °FLight snow. Ice fog.5 mph83%30.52 "Hg5 mi
8:52 PM18 °FLight snow. Overcast.8 mph80%30.54 "Hg5 mi
7:52 PM18 °FLight snow. Overcast.7 mph80%30.56 "Hg2 mi
6:52 PM18 °FLight snow. Overcast.8 mph68%30.58 "Hg3 mi
5:52 PM19 °FMostly cloudy.8 mph57%30.57 "Hg10 mi
4:52 PM19 °FSunny.7 mph52%30.58 "Hg10 mi
3:52 PM20 °FSunny.8 mph45%30.60 "Hg10 mi
2:52 PM19 °FSunny.8 mph47%30.63 "Hg10 mi
1:52 PM18 °FSunny.9 mph45%30.64 "Hg10 mi
12:52 PM17 °FSunny.10 mph49%30.68 "Hg10 mi
11:52 AM16 °FSunny.12 mph51%30.71 "Hg10 mi
Weather by CustomWeather, © 2015

See weather overviewHow to use our weather pages